Regional Weather Roundup
Issued by NWS

Home | Current Version | Previous Version | Graphics & Text | Print | Product List | Glossary On
Versions: 1 2 3 4 5 6 7 8 9 10 11 12 13 14 15 16 17 18 19 20 21 22 23 24 25 26 27 28 29 30 31 32 33 34 35 36 37 38 39 40 41 42 43 44 45 46 47 48 49 50
000
ASUS43 KLOT 282308
RWRIL

ILLINOIS REGIONAL WEATHER ROUNDUP
NATIONAL WEATHER SERVICE CHICAGO/ROMEOVILLE IL
600 PM CDT THU JUL 28 2016

NOTE: "FAIR" INDICATES FEW OR NO CLOUDS BELOW 12,000 FEET WITH NO
SIGNIFICANT WEATHER AND/OR OBSTRUCTIONS TO VISIBILITY.

* THESE STATIONS ARE NOT UNDER NWS QUALITY CONTROL. THEY ALSO MAY NOT
  REPORT WEATHER SUCH AS PRECIPITATION OR FOG.

ILZ001-002-007-009-015-016-024-290000-
NORTHWEST ILLINOIS

CITY           SKY/WX    TMP DP  RH WIND       PRES   REMARKS
MOLINE         MOSUNNY   84  66  54 W12       29.88S HX  86
STERLING*      PTSUNNY   76  69  79 E10       29.89R
SAVANNA*       MOSUNNY   82  69  65 N10       29.88R HX  85
$$

ILZ003-004-008-010-011-017-018-290000-
NORTH CENTRAL ILLINOIS

CITY           SKY/WX    TMP DP  RH WIND       PRES   REMARKS
ROCKFORD       LGT RAIN  78  68  71 E5        29.90F HX  80
FREEPORT*      PTSUNNY   74  70  88 E8        29.92R
ROCHELLE*      CLOUDY    73  70  91 SE3       29.89F
DE KALB*       CLOUDY    73  66  79 E7        29.90F
$$

ILZ005-006-012>014-019>023-290000-
NORTHEAST ILLINOIS

CITY           SKY/WX    TMP DP  RH WIND       PRES   REMARKS
CHICAGO-OHARE  CLOUDY    75  72  90 NE8       29.87F
CHICAGO-MIDWAY CLOUDY    76  71  85 S5        29.87F
AURORA         CLOUDY    74  68  81 S5        29.90S
LANSING*       CLOUDY    74  69  85 CALM      29.89F
JOLIET*        CLOUDY    76  70  83 CALM      29.89F
WAUKEGAN       CLOUDY    72  66  81 N6        29.89S
DUPAGE AIRPORT PTSUNNY   75  70  84 E6        29.88F
KANKAKEE*      CLOUDY    78  68  72 NW12G17   29.89F HX  80
WHEELING       PTSUNNY   75  70  84 NE6       29.89F
MORRIS*        CLOUDY    77  69  78 SE3       29.88F
ROMEOVILLE*    CLOUDY    73  67  79 CALM      29.88F
NORTHERLY ISL    N/A     75  72  90 N7          N/A
$$

LMZ740>746-290000-
SOUTHERN LAKE MICHIGAN

STATION/POSITION SKY/WX   TEMP    WIND        PRES    VSBY  WAVE
                          AIR SEA DIR/SP/G                  HT/PER
                          (F)     (DEG/KT/KT) (MB)    (MI)  (FT/S)
SOUTHERN BUOY              75 77   50/ 14/ 17 1011.5F         2/ 6
WILMETTE HARBOR            74 75   40/ 10/ 12   N/A           2/ 4
HARRISON CRIB              75     340/ 11/ 12   N/A
BURNHAM HARBOR             74     350/  5/ 10   N/A
CALUMET HARBOR                    300/  2/  3 1012.3S
BURNS HARBOR                                  1012.9R
MICHIGAN CITY              77     360/ 12/ 13   N/A
MICHIGAN CITY 6N           77 77   60/ 10/ 12   N/A           1/ 2
ST. JOSEPH                 76 78  140/  8/ 10 1012.4S         1
$$

ILZ025>027-034>036-040-047-049-050-058-095>099-290000-
WEST-CENTRAL ILLINOIS

CITY           SKY/WX    TMP DP  RH WIND       PRES   REMARKS
QUINCY         MOSUNNY   82  72  71 N12       29.90R HX  87
GALESBURG*     MOSUNNY   79  68  68 W10       29.91R HX  81
MACOMB*        SUNNY     80  69  68 NW12      29.93R HX  82
JACKSONVILLE*  SUNNY     83  72  67 NW8       29.88S HX  88
PITTSFIELD*    MOSUNNY   82  71  69 NW5       29.91S HX  85
$$

ILZ028>032-037-038-041>044-048-051>054-059>061-290000-
CENTRAL ILLINOIS

CITY           SKY/WX    TMP DP  RH WIND       PRES   REMARKS
PONTIAC        SUNNY     81  75  81 N5        29.89S HX  87
BLOOMINGTON    SUNNY     76  70  82 SE7       29.90S
DECATUR        MOSUNNY   84  70  62 NE7       29.87F HX  88
PEORIA         PTSUNNY   85  73  67 VRB5      29.88R HX  91
LACON*         PTSUNNY   81  67  61 E13       29.88R HX  84
LINCOLN*       MOSUNNY   82  75  78 E6        29.88R HX  89
SPRINGFIELD    MOSUNNY   87  73  62 NW7       29.88R HX  94
TAYLORVILLE    SUNNY     82  73  75 MISG      29.88S HX  87
$$

ILZ033-039-045-046-055>057-062-063-290000-
EAST-CENTRAL ILLINOIS

CITY           SKY/WX    TMP DP  RH WIND       PRES   REMARKS
CHAMPAIGN      MOSUNNY   79  72  79 NW6       29.89R HX  82
MATTOON        TSTM      70  64  81 NE13G51   29.89R VSB 1/2
PARIS*         PTSUNNY   82  74  77 CALM      29.88S HX  88
$$

ILZ079-100>102-290000-
SOUTHWEST ILLINOIS

CITY           SKY/WX    TMP DP  RH WIND       PRES   REMARKS
BELLEVILLE     MOSUNNY   87  73  64 NW3       29.86R HX  94
CAHOKIA*       PTSUNNY   87  71  58 N10       29.86R HX  93
SPARTA*        PTSUNNY   86  73  65 CALM      29.88S HX  93
$$

ILZ064>066-069>071-074>076-080>082-084>086-088>090-092>094-290000-
SOUTH-CENTRAL ILLINOIS

CITY           SKY/WX    TMP DP  RH WIND       PRES   REMARKS
CARBONDALE     LGT RAIN  78  72  81 SE6       29.87F HX  80
CAIRO*         PTSUNNY   78  71  78 SW3       29.88R HX  81
EFFINGHAM*     CLOUDY    81  75  82 S5        29.89S HX  86
MARION         PTSUNNY   79  72  78 E7        29.89F HX  82
MT. VERNON     PTSUNNY   82  70  65 MISG      29.87F HX  86
CENTRALIA*     MOSUNNY   85  76  74 S3        29.86F HX  95
SALEM*         HVY RAIN  78  71  80 W5        29.89R
METROPOLIS*    CLOUDY    85  78  78 CALM      29.90R HX  96
$$

ILZ067-068-072-073-078-083-087-091-290000-
SOUTHEAST ILLINOIS

CITY           SKY/WX    TMP DP  RH WIND       PRES   REMARKS
LAWRENCEVILLE  CLOUDY    76  72  87 SW12      29.88R THUNDER
FLORA*         CLOUDY    82  75  80 NE3       29.89R HX  88
FAIRFIELD*     CLOUDY    82  72  70 CALM      29.86S HX  87
HARRISBURG*    PTSUNNY   76  72  88 CALM      29.88S
ROBINSON*      CLOUDY    83  74  75 CALM      29.88R HX  89
CARMI*         CLOUDY    85  78  81 CALM      29.86S HX  96
$$

ABBREVIATIONS USED IN REMARKS
   TC - TEMPERATURE IN CELSIUS
  WCI - WIND CHILL INDEX
   HX - HEAT INDEX
  VSB - VISIBILITY
$$





USA.gov is the U.S. government's official web portal to all federal, state and local government web resources and services.